When you browse on this site, cookies collect data to enhance your experience and personalize the content and advertising you see.
Visit our Privacy Policy to learn more. By continuing to use the site, you agree to this use of cookies and data.
  • In United Kingdom
  • List of Countries
  • For 7 days
  • Water Temperature
  • Weather Map
  • Weather Widgets
  • user-avatar
    Login

    Hourly Weather Balchik

    Today, 20 January, Monday

    Time Temperature Precipitation Wind Pressure Humidity
    00:00 -2°C° 0 mm 5 mps 750 mmHg 89%
    01:00 -2°C° 0 mm 5 mps 751 mmHg 87%
    02:00 -4°C° 0 mm 5 mps 751 mmHg 84%
    03:00 -4°C° 0 mm 5 mps 751 mmHg 85%
    04:00 -5°C° 0 mm 5 mps 751 mmHg 85%
    05:00 -5°C° 0 mm 5 mps 752 mmHg 86%
    06:00 -5°C° 0 mm 5 mps 752 mmHg 86%
    07:00 -5°C° 0 mm 5 mps 753 mmHg 85%
    08:00 -6°C° 0 mm 5 mps 753 mmHg 85%
    09:00 -5°C° 0 mm 5 mps 754 mmHg 80%
    10:00 -4°C° 0 mm 6 mps 754 mmHg 75%
    11:00 -3°C° 0 mm 6 mps 755 mmHg 70%
    12:00 -3°C° 0 mm 6 mps 755 mmHg 69%
    13:00 -3°C° 0 mm 6 mps 755 mmHg 69%
    14:00 -3°C° 0 mm 6 mps 755 mmHg 68%
    15:00 -3°C° 0 mm 6 mps 755 mmHg 69%
    16:00 -3°C° 0 mm 6 mps 755 mmHg 69%
    17:00 -3°C° 0 mm 6 mps 755 mmHg 70%
    18:00 -2°C° 0 mm 5 mps 756 mmHg 73%
    19:00 -4°C° 0 mm 5 mps 756 mmHg 76%
    20:00 -3°C° 0 mm 4 mps 756 mmHg 79%
    21:00 -4°C° 0 mm 5 mps 756 mmHg 78%
    22:00 -4°C° 0 mm 5 mps 757 mmHg 78%
    23:00 -4°C° 0 mm 5 mps 757 mmHg 78%

    Tomorrow, 21 January, Tuesday

    Time Temperature Precipitation Wind Pressure Humidity
    00:00 -4°C° 0 mm 5 mps 757 mmHg 79%
    01:00 -5°C° 0 mm 5 mps 756 mmHg 80%
    02:00 -5°C° 0 mm 6 mps 756 mmHg 82%
    03:00 -5°C° 0 mm 6 mps 756 mmHg 83%
    04:00 -5°C° 0 mm 5 mps 756 mmHg 85%
    05:00 -5°C° 0 mm 5 mps 756 mmHg 87%
    06:00 -5°C° 0 mm 5 mps 756 mmHg 85%
    07:00 -4°C° 0 mm 4 mps 756 mmHg 84%
    08:00 -4°C° 0 mm 4 mps 756 mmHg 82%
    09:00 -3°C° 0 mm 4 mps 756 mmHg 75%
    10:00 -1°C° 0 mm 5 mps 756 mmHg 68%
    11:00 0°C° 0 mm 5 mps 756 mmHg 61%
    12:00 +1°C° 0 mm 5 mps 755 mmHg 59%
    13:00 +2°C° 0 mm 5 mps 755 mmHg 57%
    14:00 +2°C° 0 mm 5 mps 754 mmHg 56%
    15:00 +1°C° 0 mm 4 mps 754 mmHg 61%
    16:00 0°C° 0 mm 4 mps 754 mmHg 66%
    17:00 0°C° 0 mm 3 mps 753 mmHg 72%
    18:00 -2°C° 0 mm 4 mps 753 mmHg 74%
    19:00 -2°C° 0 mm 4 mps 753 mmHg 76%
    20:00 -3°C° 0 mm 4 mps 753 mmHg 78%
    21:00 -3°C° 0 mm 4 mps 752 mmHg 78%
    22:00 -3°C° 0 mm 4 mps 752 mmHg 78%
    23:00 -3°C° 0 mm 4 mps 752 mmHg 78%

    Day after tomorrow, 22 January, Wednesday

    Time Temperature Precipitation Wind Pressure Humidity
    00:00 -3°C° 0 mm 4 mps 752 mmHg 78%
    01:00 -3°C° 0 mm 4 mps 751 mmHg 78%
    02:00 -3°C° 0 mm 4 mps 751 mmHg 77%
    03:00 -3°C° 0 mm 4 mps 750 mmHg 77%
    04:00 -3°C° 0 mm 4 mps 750 mmHg 77%
    05:00 -3°C° 0 mm 4 mps 749 mmHg 76%
    06:00 -3°C° 0 mm 4 mps 749 mmHg 75%
    07:00 -3°C° 0 mm 4 mps 749 mmHg 74%
    08:00 -3°C° 0 mm 4 mps 749 mmHg 73%
    09:00 -1°C° 0 mm 4 mps 748 mmHg 66%
    10:00 0°C° 0 mm 4 mps 748 mmHg 60%
    11:00 +3°C° 0 mm 4 mps 748 mmHg 53%
    12:00 +4°C° 0 mm 4 mps 747 mmHg 50%
    13:00 +5°C° 0 mm 5 mps 746 mmHg 47%
    14:00 +6°C° 0 mm 5 mps 746 mmHg 45%
    15:00 +5°C° 0 mm 4 mps 745 mmHg 47%
    16:00 +4°C° 0 mm 4 mps 744 mmHg 50%
    17:00 +3°C° 0 mm 4 mps 743 mmHg 53%
    18:00 +1°C° 0 mm 4 mps 743 mmHg 53%
    19:00 +1°C° 0 mm 4 mps 743 mmHg 53%
    20:00 0°C° 0 mm 4 mps 742 mmHg 53%
    21:00 0°C° 0 mm 4 mps 742 mmHg 54%
    22:00 0°C° 0 mm 5 mps 742 mmHg 56%
    23:00 -1°C° 0 mm 5 mps 742 mmHg 57%

    23 January, Thursday

    Time Temperature Precipitation Wind Pressure Humidity
    00:00 -1°C° 0 mm 4 mps 742 mmHg 60%
    01:00 -2°C° 0 mm 4 mps 742 mmHg 62%
    02:00 -2°C° 0 mm 4 mps 742 mmHg 65%
    03:00 -2°C° 0 mm 4 mps 743 mmHg 67%
    04:00 -2°C° 0 mm 3 mps 743 mmHg 70%
    05:00 -2°C° 0 mm 3 mps 743 mmHg 72%
    06:00 -2°C° 0 mm 3 mps 744 mmHg 71%
    07:00 -2°C° 0 mm 3 mps 745 mmHg 71%
    08:00 -2°C° 0 mm 3 mps 745 mmHg 70%
    09:00 -1°C° 0 mm 4 mps 746 mmHg 63%
    10:00 0°C° 0 mm 5 mps 747 mmHg 56%
    11:00 +2°C° 0 mm 6 mps 748 mmHg 48%
    12:00 +2°C° 0 mm 6 mps 748 mmHg 45%
    13:00 +3°C° 0 mm 6 mps 748 mmHg 43%
    14:00 +3°C° 0 mm 7 mps 748 mmHg 40%
    15:00 +2°C° 0 mm 6 mps 748 mmHg 44%
    16:00 +1°C° 0 mm 5 mps 748 mmHg 49%
    17:00 +1°C° 0 mm 3 mps 748 mmHg 54%
    18:00 +1°C° 0 mm 3 mps 749 mmHg 58%
    19:00 0°C° 0 mm 3 mps 749 mmHg 62%
    20:00 -1°C° 0 mm 3 mps 750 mmHg 65%
    21:00 -1°C° 0 mm 3 mps 750 mmHg 66%
    22:00 -2°C° 0 mm 3 mps 751 mmHg 66%
    23:00 -2°C° 0 mm 3 mps 751 mmHg 67%

    24 January, Friday

    Time Temperature Precipitation Wind Pressure Humidity
    00:00 -3°C° 0 mm 2 mps 751 mmHg 69%
    01:00 -3°C° 0 mm 2 mps 751 mmHg 71%
    02:00 -3°C° 0 mm 2 mps 751 mmHg 73%
    03:00 -1°C° 0 mm 1 mps 751 mmHg 73%
    04:00 -2°C° 0 mm 1 mps 751 mmHg 73%
    05:00 -2°C° 0 mm 1 mps 751 mmHg 73%
    06:00 -2°C° 0 mm 1 mps 751 mmHg 72%
    07:00 -2°C° 0 mm 1 mps 751 mmHg 70%
    08:00 -4°C° 0 mm 2 mps 751 mmHg 69%
    09:00 -2°C° 0 mm 2 mps 751 mmHg 61%
    10:00 0°C° 0 mm 3 mps 751 mmHg 53%
    11:00 +1°C° 0 mm 4 mps 751 mmHg 45%
    12:00 +3°C° 0 mm 4 mps 751 mmHg 45%
    13:00 +4°C° 0 mm 4 mps 750 mmHg 45%
    14:00 +4°C° 0 mm 4 mps 749 mmHg 46%
    15:00 +3°C° 0 mm 4 mps 749 mmHg 52%
    16:00 +1°C° 0 mm 4 mps 748 mmHg 58%
    17:00 +1°C° 0 mm 3 mps 748 mmHg 64%
    18:00 +1°C° 0 mm 3 mps 748 mmHg 67%
    19:00 0°C° 0 mm 3 mps 747 mmHg 71%
    20:00 -1°C° 0 mm 3 mps 747 mmHg 74%
    21:00 -1°C° 0 mm 3 mps 747 mmHg 74%
    22:00 -1°C° 0 mm 3 mps 747 mmHg 75%
    23:00 -1°C° 0 mm 3 mps 746 mmHg 75%

    25 January, Saturday

    Time Temperature Precipitation Wind Pressure Humidity
    00:00 -1°C° 0 mm 3 mps 746 mmHg 75%
    01:00 -2°C° 0 mm 3 mps 745 mmHg 75%
    02:00 -2°C° 0 mm 3 mps 745 mmHg 76%
    03:00 -2°C° 0 mm 3 mps 744 mmHg 75%
    04:00 -2°C° 0 mm 2 mps 744 mmHg 75%
    05:00 -2°C° 0 mm 2 mps 744 mmHg 75%
    06:00 -2°C° 0 mm 2 mps 744 mmHg 74%
    07:00 -2°C° 0 mm 2 mps 744 mmHg 73%
    08:00 -1°C° 0 mm 2 mps 744 mmHg 72%
    09:00 +2°C° 0 mm 2 mps 744 mmHg 64%
    10:00 +3°C° 0 mm 3 mps 744 mmHg 56%
    11:00 +5°C° 0 mm 3 mps 744 mmHg 48%
    12:00 +7°C° 0 mm 3 mps 744 mmHg 46%
    13:00 +8°C° 0 mm 3 mps 743 mmHg 44%
    14:00 +9°C° 0 mm 3 mps 743 mmHg 43%
    15:00 +8°C° 0 mm 3 mps 742 mmHg 47%
    16:00 +7°C° 0 mm 3 mps 742 mmHg 51%
    17:00 +5°C° 0 mm 2 mps 742 mmHg 55%
    18:00 +4°C° 0 mm 3 mps 742 mmHg 57%
    19:00 +4°C° 0 mm 3 mps 742 mmHg 58%
    20:00 +3°C° 0 mm 3 mps 742 mmHg 60%
    21:00 +4°C° 0 mm 2 mps 742 mmHg 59%
    22:00 +4°C° 0 mm 2 mps 742 mmHg 58%
    23:00 +5°C° 0 mm 2 mps 742 mmHg 57%
    Show more